050511 A17  0.2-  0.2+    050527 170  0.1-  0.3+    050610 213  0.0   0.1+  

050511 A17  0.0   0.2+    050527 170  0.1+  0.2+    050610 213  0.1+  0.0   

050511 A17  0.2-  0.2+    050527 170  0.1-  0.2+    050610 213  0.2-  0.3-  

050511 198  0.0   0.3+    050527 213  0.6-  0.2+    050611 H45  0.3-  0.7-  

050511 012  0.0   0.3-    050527 213  0.1-  0.0     050611 H45 (1.0-  2.0-) 

050511 198  0.0   0.4+    050527 213  0.3-  0.3+    050611 H45 (1.3+  2.2-) 

050511 012  0.0   0.2-    050527 048  0.4+  0.8+    050611 H45  0.6+  0.8-  

050511 198  0.1-  0.3+    050527 048  1.0+  0.9+    050611 J76  0.2-  0.1+  

050511 198  0.0   0.5+    050527 048  0.0   0.6+    050611 J76  0.1-  0.1-  

050511 012  0.1-  0.1-    050527 048  0.6-  0.8+    050611 J76  0.0   0.0   

050512 012  0.2+  0.4-    050527 048  0.2+  0.3+    050612 J78  0.3+  0.2+  

050512 012  0.0   0.1-    050527 J78  0.3+  0.3+    050612 J78  0.1+  0.3+  

050512 012  0.1-  0.2-    050527 J78  0.1+  0.5+    050612 J78  0.2-  0.8+  

050512 012  0.0   0.3-    050527 J78  1.7-  0.1+    050612 J95  0.3+  0.1-  

050512 012  0.1-  0.3-    050527 A18  0.4+  0.1+    050612 J95  0.3+  0.1-  

050512 J95  0.3-  0.2-    050527 A32  0.4+  0.3-    050612 J95  0.2+  0.3-  

050512 J95  0.3-  0.4-    050527 A32  0.7+  0.2-    050613 340 (2.3+  1.9-) 

050512 J95  0.4-  0.2-    050527 A32  0.1+  0.0     050613 340 (2.8+  1.1-) 

050512 844  1.0-  0.5+    050527 A32  0.1+  0.0     050613 340 (1.1+  2.6-) 

050512 844  0.8-  0.6+    050527 A32  0.4-  0.3+    050616 673  0.6+  0.3+  

050512 932  0.3-  0.1+    050528 734  0.2+  0.2-    050616 673  0.0   0.4+  

050512 844  1.4-  0.4+    050528 734  0.1-  0.7-    050616 673  0.0   0.4+  

050512 844  0.7-  0.5+    050528 734  0.5-  0.7-    050616 673  0.3-  0.7+  

050512 844  1.0-  0.9+    050528 151  0.0   0.2-    050617 157  0.3+  0.6-  

050512 932  0.1-  0.4+    050528 151  0.1+  0.0     050617 A06 (7.7+  1.6-) 

050512 932  0.1-  0.0     050528 151  0.2+  0.1+    050617 J78 (2.1+  0.1-) 

050512 H45  0.4-  1.3+    050528 151  0.4+  0.1+    050617 J78  0.8+  0.3+  

050512 H45  1.7-  0.2+    050528 941  0.1+  0.5+    050617 J78  0.4+  0.7+  

050512 H45  0.4-  0.6+    050528 941  0.1-  0.2+    050617 442  1.3+  0.6+  

050512 H45  0.8-  0.7+    050528 941  0.1-  0.5+    050617 A06 (8.0+  1.8-) 

050512 H45  0.5-  0.4+    050528 941  0.6-  0.4+    050617 442  0.8-  0.0   

050512 608  0.0   0.5-    050528 048  0.7+  0.9+    050617 A06 (7.5+  2.1-) 

050512 608  0.4+  0.6-    050528 048  0.1+  0.1+    050617 939  0.8+  0.9-  

050512 608  0.2+  0.4-    050528 048  0.4+  0.6+    050617 A06 (7.8+  1.6-) 

050512 599  0.0   0.4+    050528 048  0.6+  0.6+    050617 939  0.2-  0.1-  

050512 599  0.0   0.4+    050528 048  0.9+  0.9+    050617 A06 (8.4+  1.6-) 

050512 599  0.0   0.4+    050528 046  0.6+  0.2+    050617 232  0.3-  0.0   

050512 599  0.0   0.3+    050528 046  0.8+  0.0     050617 232  1.3-  0.2+  

050512 012  0.9-  0.2-    050528 046  0.4+  0.1-    050617 232  1.2-  0.2+  

050512 012  1.9-  0.2+    050528 046  0.1+  0.1-    050618 939  0.3+  1.0-  

050512 012  0.3-  0.3+    050528 046  0.8+  0.2+    050618 939  0.6+  1.1-  

050512 012  0.6+  0.0     050528 046  0.5+  0.1+    050618 A06 (8.2+  1.5-) 

050512 012  0.7-  0.1-    050528 J78  0.1+  0.3+    050618 A06 (8.3+  1.6-) 

050513 932  0.1-  0.1+    050528 J78  0.4+  0.2+    050618 A06 (9.1+  1.8-) 

050513 932  0.4-  0.1+    050528 J78  0.2+  0.0     050620 147  0.2+  1.0+  

050513 932  0.1-  0.2+    050530 785  0.8+  0.6+    050620 147  1.0-  0.4+  

050514 704  0.0   0.1-    050530 785  0.2-  0.7-    050620 147  1.0-  0.0   

050514 704  0.3+  0.2-    050530 372  0.2+  0.4-    050620 147  0.2-  0.6-  

050514 704  0.2-  0.1-    050531 945  0.6-  0.8+    050620 147  0.1-  0.8-  

050514 704  0.2+  0.2-    050531 945  0.5-  0.2+    050624 I77  0.4+  0.2-  

050514 704  0.0   0.1+    050531 945  0.6-  0.9+    050624 I77  0.6+  0.3-  

050514 A06  0.5+  0.6-    050531 945  0.7-  0.7+    050624 I77  0.6-  0.3-  

050514 A06  0.4+  0.8-    050531 945  1.1-  1.0+    050802 693  0.4-  0.3+  

050514 A06  0.1+  0.8-    050531 I77  0.2-  0.2+    050802 693  0.0   0.0   

050514 952  0.1+  0.0     050531 I77  0.1-  0.2-    050802 693  0.4-  0.2+  

050514 952  0.1-  0.1+    050531 I77  0.2-  0.0     050802 693  0.0   0.1-  

050514 952  0.0   0.0     050531 I77  0.3+  0.5-    050805 D83  0.3+  0.8-  

050514 952  0.3-  0.1+    050531 H45  0.1+  0.1+    050805 D83  0.9-  0.5-  

050514 952  0.3-  0.1+    050531 H45  0.1+  0.3-    050805 D83  0.5-  0.9-  

050514 147  0.1-  0.2-    050531 H45  0.3-  0.4-    050813 147 (2.6+  0.1+) 

050514 147  0.1-  0.1-    050531 H45  1.1+  0.3-    050813 147  1.1+  0.2-  

050514 147  0.0   0.1+    050531 703 (4.4+  5.1-)   050813 147  0.9+  0.7-  

050515 644  0.1+  0.1-    050531 703 (5.2+  4.9-)   050819 349 (2.4+  0.5+) 

050515 644  0.1+  0.1+    050531 703 (4.0+  5.3-)   050819 349  1.7+  0.2+  

050515 644  0.0   0.0     050531 H06  0.1-  0.4-    050903 349  0.3+  1.3+  

050515 H45  0.0   0.3+    050531 703 (5.4+  5.7-)   050903 349  0.3+  1.1+  

050515 H45  0.0   1.0-    050531 H06 (4.0+  1.9-)   050903 349  0.4-  1.1+  

050515 H45  0.3-  0.3-    050531 H06  1.2-  0.5+    050904 157  1.5-  0.6-  

050515 H45  0.2-  0.1-    050531 H06  1.7+  1.0-    050907 349  0.2+  0.8-  

050515 H45  0.1-  0.4-    050531 372  0.4+  0.4+    050907 349  0.2+  1.1-  

050517 F65  0.9-  0.9-    050531 349  0.7+  0.4-    050912 704  0.4+  0.4+  

050517 F65  0.9-  0.8-    050531 349  0.7+  0.2-    050912 704  0.2-  0.8-  

050517 F65  1.0-  0.8-    050531 349  0.5+  0.2-    050912 704  0.4+  0.1-  

050517 F65  1.1-  1.0-    050601 G96 (1.9+  2.2-)   050912 704 (0.2-  2.1-) 

050517 F65  0.8-  1.1-    050601 G96  1.9+  1.9-    050914 A32  0.6-  0.6+  

050517 F65  1.1-  1.2-    050601 G96  1.8+  1.9-    050914 A32  1.6-  0.5+  

050517 F65  1.8-  1.2-    050601 G96 (2.1+  2.2-)   050929 F65  0.2+  0.4+  

050517 938  0.1-  0.4+    050601 G96 (2.0+  2.1-)   050929 F65  0.1-  0.4+  

050518 938  0.3-  0.4+    050601 G96 (2.3+  2.4-)   050929 F65  0.4-  0.2+  

050518 785  1.0-  1.8+    050601 G96 (2.6+  2.8-)   051005 A32  0.2+  0.3-  

050518 785 (2.1-  0.9+)   050601 G96 (2.6+  2.7-)   051005 A32  0.8+  1.8-  

050518 673  0.2-  0.5+    050601 157  0.6-  0.3-    051026 A79  0.4+  0.0   

050518 673  0.1-  0.5+    050601 A46  0.2+  0.0     051026 A79  0.6-  0.2+  

050518 673  0.0   0.5+    050601 A46  0.1-  0.2-    051026 A79  1.2+  1.6+  

050518 673  0.2-  0.6+    050601 A46  0.2+  0.1+    051029 G96  0.5-  0.1-  

050518 H45  0.2+  0.1-    050601 A46  0.2+  0.2+    051029 G96  0.1+  0.3+  

050518 H45  0.1+  0.1-    050601 A46  0.1+  0.3+    051029 G96  0.2-  0.3+  

050518 H45  0.2-  0.3+    050601 A46  0.3-  0.0     051107 147  0.0   0.5+  

050518 H45  0.2+  1.1+    050602 F65  0.5-  0.4+    051121 703 (2.5-  0.5+) 

050518 H45  0.3+  0.8+    050602 F65  0.3-  0.3+    051121 703  0.9-  0.4-  

050518 A06  1.7+  1.2-    050602 F65  0.6-  0.3+    051121 703 (3.8-  0.7+) 

050518 198  0.0   0.2+    050602 F65 (8.7+  9.5+)   051121 703  1.6+  1.1+  

050518 198  0.2-  0.3+    050602 233  1.4+  1.6-                            



NAKANO

         **** Don't distribute anyone except personal use only ****

                (C) Copyright 2005 OAA/ComputingSection

write mail from CFAD0::NAKANO on 2005-12-08 01:42:10(JST).

 

    P/2005 JQ5 (Catalina)

Epoch 2005 July 9.0 TT = JDT 2453560.5  

T 2005 July 28.03370 TT                                 Nakano

q   0.8255834            (2000.0)            P               Q

n   0.22281516     Peri.  222.68389     +0.74614776     +0.65841904

a   2.6946740      Node    95.86126     -0.58094871     +0.71631382

e   0.6936240      Incl.    5.69600     -0.32521089     +0.23103870

P   4.42 (+/- 0.03 day)

From 552 observations 2005 May 6-Sept. 3, mean residual 0".58.



NAKANO

         **** Don't distribute anyone except personal use only ****

                (C) Copyright 2005 OAA/ComputingSection

write mail from CFAD0::NAKANO on 2005-09-12 05:45:24(JST).

 

    P/2005 JQ5 (Catalina)                                                 

T 2005 July 28.04419 TT                                 Nakano

q   0.8255905            (2000.0)            P               Q

n   0.22319393     Peri.  222.69392     +0.74628442     +0.65826822

a   2.6916244      Node    95.86295     -0.58081019     +0.71642563

e   0.6932743      Incl.    5.69444     -0.32514470     +0.23112176

P   4.42 (+/- 0.07 day)

From 537 observations 2005 May 6-June 24.



NAKANO

         **** Don't distribute anyone except personal use only ****

                (C) Copyright 2005 OAA/ComputingSection

write mail from CFAD0::NAKANO on 2005-07-03 02:21:28(JST).



     P/2005 JQ5 (Catalina)                                                

T 2005 July 28.04291 TT                                 Nakano

q   0.8255411            (2000.0)            P               Q

n   0.22301030     Peri.  222.69505     +0.74630241     +0.65824521

a   2.6931018      Node    95.86349     -0.58078502     +0.71644777

e   0.6934609      Incl.    5.69545     -0.32514840     +0.23111866

P   4.42 (+/- 0.29 day)

From 373 observations 2005 May 6-31.



NAKANO

         **** Don't distribute anyone except personal use only ****

                (C) Copyright 2005 OAA/ComputingSection

write mail from CFAD0::NAKANO on 2005-06-05 05:59:11(JST).

 





◎P/2005 JQ5の軌道と予報位置です



  ASOのシェロードから5月18日の観測が報告されました.氏のCCD全光度は

16.4等でした.なお,この彗星は,6月27日頃に地球に0.10 AUまで接近し,

光度が10等〜11等級まで明るくなるでしょう.



    P/2005 JQ5 (Catalina)                                                 

T 2005 July 28.05569 TT                                 Nakano

q   0.8259952            (2000.0)            P               Q

n   0.22467136     Peri.  222.69262     +0.74613884     +0.65845185

a   2.6798114      Node    95.85092     -0.58100378     +0.71624925

